Tracking 19638 objects as of 21-Apr-2019
HD Live streaming from Space Station
objects crossing your sky now

CZ-4 DEB

Track CZ-4 DEB now!
10-day predictions


NORAD ID: 27687
Int'l Code: 1999-057MT
Perigee: 712.7 km
Apogee: 840.0 km
Inclination: 98.7 °
Period: 100.2 minutes
Semi major axis: 7147 km
RCS: 0.0174 m2 (small)
Launch date: October 14, 1999
Source: People's Republic of China (PRC)
Launch site: Taiyaun Space Center, China (TSC)

Note: This is SATELLITE DEBRIS
aabbcc
Your satellite tracking list
Your tracking list is empty




NASA's NSSDC Master Catalog

Two Line Element Set (TLE):
1 27687U 99057MT  19109.72364501 -.00000006 +00000-0 +13181-4 0  9993
2 27687 098.6501 063.9851 0089051 315.8826 043.5280 14.36767052877767
Source of the keplerian elements: AFSPC